Find Starlink 34816

NORAD ID: 65467 Int'l Des: 2025-195 Owner: SPXS Country: US Constellation: starlink operational
LEOCIRCULAR

当前视图

正在加载3D地球...

About Starlink 34816

Starlink 34816 (NORAD 65467) is a starlink constellation satellite (v2 mini) launched Sep 3, 2025 by SPXS of US. It operates in LEO, CIRCULAR orbit with a mass of 575.00 kg.

即将过境

Passes for default location (London). Set your location on the main map for personalized predictions.

高度历史

Loading altitude history...

两行轨道根数

1 65467U 25195K 26262.90094613 .00019058 00000-0 62373-3 0 9997
2 65467 53.1585 75.7096 0001220 85.9836 274.1305 15.31730528 59736
Epoch: Sep 19, 2026 • Age: 18 hours

当前状态

高度 487.8 km
远地点 / 近地点 N/A
速度 7.62 km/s
星下点 -48.16°S, 134.48°E
发射日期 Sep 3, 2025
运行时间 1 year
类型 internet

技术详情

分类 Payload
质量 575.00 kg
干质量 530.00 kg
长度 0.30 m
跨度 29.00 m
形状 ? Box + pan
制造商 SPXS
平台类型 Starlink V2MO
阶段状态 In Orbit
所有者/国家 SPXS/US

Most Searched